FW2344 Weather Reports


time (UTC)temp
C
wind
direction
speed
KPH
gust
KPH
rain 1hr
cm
rain 24hr
cm
rain mn
cm
humidity
%
barometer
mb
20260506123053 17 21 0.0 4.8 0.00 0.00 0.00 81 1009.6
20260506121553 17 139 0.0 4.8 0.00 0.00 0.00 81 1009.7
20260506120048 17 143 0.0 8.0 0.00 0.00 0.00 82 1010.0
20260506114548 17 170 0.0 8.0 0.00 0.00 0.00 82 1009.8
20260506113044 17 178 1.6 12.9 0.00 0.00 0.00 82 1009.7
20260506111542 17 179 0.0 4.8 0.00 0.00 0.00 83 1009.6
20260506110040 16 155 3.2 11.3 0.00 0.00 0.00 83 1009.7
20260506104540 16 159 0.0 6.4 0.00 0.00 0.00 83 1009.7
20260506103046 16 358 0.0 8.0 0.00 0.00 0.00 83 1009.3
20260506101532 16 144 0.0 8.0 0.00 0.00 0.00 82 1009.4
20260506100030 16 177 0.0 8.0 0.00 0.00 0.00 82 1009.2
20260506094527 16 158 1.6 12.9 0.00 0.00 0.00 81 1009.6
20260506093023 16 332 0.0 8.0 0.00 0.00 0.00 80 1009.5
20260506091521 17 83 1.6 8.0 0.00 0.00 0.00 80 1009.2
20260506090022 17 144 0.0 8.0 0.00 0.00 0.00 79 1009.3
20260506084512 17 181 0.0 11.3 0.00 0.00 0.00 77 1009.4
20260506083011 17 102 0.0 6.4 0.00 0.00 0.00 76 1009.5
20260506081506 17 169 0.0 3.2 0.00 0.00 0.00 75 1009.5
20260506073059 18 163 0.0 4.8 0.00 0.00 0.00 71 1009.3
20260506071552 18 153 0.0 6.4 0.00 0.00 0.00 70 1009.6
20260506061553 18 167 0.0 3.2 0.00 0.00 0.00 69 1009.9
20260506050128 20 155 0.0 1.6 0.00 0.00 0.00 66 1010.3
20260506044523 20 286 0.0 6.4 0.00 0.00 0.00 65 1010.3
20260506043033 20 160 0.0 3.2 0.00 0.00 0.00 65 1010.4
20260506041514 20 154 0.0 4.8 0.00 0.00 0.00 64 1010.2
20260506040009 20 174 0.0 4.8 0.00 0.00 0.00 64 1010.2
20260506034507 20 162 0.0 4.8 0.00 0.00 0.00 64 1010.3
20260506033005 20 153 0.0 4.8 0.00 0.00 0.00 63 1010.2
20260506031503 20 103 0.0 11.3 0.00 0.00 0.00 62 1010.2
20260506030000 21 162 0.0 11.3 0.00 0.00 0.00 58 1010.2
20260506024601 22 167 0.0 12.9 0.00 0.00 0.00 54 1009.9
20260506023057 22 49 0.0 8.0 0.00 0.00 0.00 51 1009.8
20260506021604 23 274 0.0 8.0 0.00 0.00 0.00 48 1009.8
20260506020053 23 160 0.0 11.3 0.00 0.00 0.00 47 1009.6
20260506014551 23 157 0.0 9.7 0.00 0.00 0.00 44 1009.5
20260506013056 23 264 0.0 3.2 0.00 0.00 0.00 44 1009.3
20260506011559 23 147 0.0 1.6 0.00 0.00 0.00 43 1009.2
20260506010044 23 124 0.0 1.6 0.00 0.00 0.00 43 1009.0
20260506004541 24 171 0.0 3.2 0.00 0.00 0.00 42 1008.9
20260506003040 24 185 0.0 11.3 0.00 0.00 0.00 41 1008.8
20260506001542 24 67 0.0 11.3 0.00 0.00 0.00 40 1008.7
20260506000039 25 164 0.0 6.4 0.00 0.00 0.00 39 1008.6
20260505234533 25 316 0.0 6.4 0.00 0.00 0.00 39 1008.4
20260505233031 25 337 0.0 11.3 0.00 0.00 0.00 38 1008.2
20260505231534 25 320 0.0 11.3 0.00 0.00 0.00 38 1008.0
20260505230034 26 328 0.0 4.8 0.00 0.00 0.00 39 1007.9
20260505224526 26 168 1.6 12.9 0.00 0.00 0.00 39 1007.6
20260505223028 26 167 0.0 4.8 0.00 0.00 0.00 39 1007.6
20260505221524 27 329 0.0 22.5 0.00 0.00 0.00 38 1007.3
20260505220019 27 8 3.2 19.3 0.00 0.00 0.00 37 1007.1
20260505214524 27 142 1.6 12.9 0.00 0.00 0.00 37 1007.2
20260505213019 27 149 1.6 16.1 0.00 0.00 0.00 37 1007.0
20260505211514 27 172 0.0 14.5 0.00 0.00 0.00 36 1007.0
20260505210012 28 11 1.6 14.5 0.00 0.00 0.00 37 1006.7
20260505204509 28 147 4.8 17.7 0.00 0.00 0.00 36 1006.6
20260505203005 28 135 0.0 11.3 0.00 0.00 0.00 37 1006.8
20260505201505 29 182 1.6 11.3 0.00 0.00 0.00 37 1006.9
20260505200106 28 1 1.6 16.1 0.00 0.00 0.00 36 1007.0
20260505194557 29 191 6.4 17.7 0.00 0.00 0.00 35 1007.2
20260505193053 28 18 4.8 20.9 0.00 0.00 0.00 38 1007.3
20260505191549 28 156 3.2 9.7 0.00 0.00 0.00 39 1007.5
20260505190047 28 135 3.2 14.5 0.00 0.00 0.00 38 1007.6
20260505184541 28 100 1.6 19.3 0.00 0.00 0.00 40 1007.7
20260505183051 28 53 0.0 12.9 0.00 0.00 0.00 40 1008.0
20260505181535 28 154 0.0 19.3 0.00 0.00 0.00 43 1008.0
20260505180035 28 176 1.6 16.1 0.00 0.00 0.00 44 1008.3
20260505174528 29 144 0.0 8.0 0.00 0.00 0.00 42 1008.4
20260505173024 28 157 0.0 11.3 0.00 0.00 0.00 45 1008.5
20260505171518 28 110 0.0 14.5 0.00 0.00 0.00 43 1008.5
20260505170014 27 120 0.0 17.7 0.00 0.00 0.00 49 1008.9
20260505164509 28 188 3.2 9.7 0.00 0.00 0.00 46 1009.1
20260505163009 28 143 1.6 11.3 0.00 0.00 0.00 44 1009.4
20260505161607 27 171 1.6 9.7 0.00 0.00 0.00 49 1009.6
20260505153045 26 130 0.0 14.5 0.00 0.00 0.00 51 1010.1
20260505151541 26 144 0.0 6.4 0.00 0.00 0.00 52 1010.1
20260505124606 17 135 0.0 3.2 0.00 0.00 0.00 79 1010.3